CW5066 Weather Reports


Display with metric or nautical units.
time (UTC)temp
F
wind
direction
speed
MPH
gust
MPH
rain 1hr
in
rain 24hr
in
rain mn
in
humidity
%
barometer
mb
20260507050516 26 0 12.0 20.0 0.00 0.07 0.07 65 1019.5
20260507045516 26 0 11.0 20.0 0.00 0.07 0.07 64 1019.5
20260507044536 26 0 10.0 18.0 0.00 0.07 0.07 63 1019.3
20260507043516 26 0 13.0 20.0 0.00 0.07 0.07 62 1019.2
20260507042516 26 0 10.0 17.0 0.00 0.07 0.07 64 1018.6
20260507041516 26 0 11.0 21.0 0.00 0.07 0.07 61 1018.4
20260507040536 26 0 10.0 24.0 0.00 0.07 0.07 63 1018.2
20260507035516 26 0 10.0 22.0 0.00 0.07 0.07 63 1018.3
20260507034536 27 0 10.0 21.0 0.00 0.07 0.07 64 1018.2
20260507033516 27 0 8.0 18.0 0.00 0.07 0.07 63 1018.2
20260507032636 27 0 8.0 18.0 0.00 0.07 0.07 64 1018.2
20260507031516 27 0 9.0 20.0 0.00 0.07 0.07 65 1018.1
20260507030516 27 0 8.0 19.0 0.00 0.07 0.07 63 1017.7
20260507025516 27 0 10.0 30.0 0.00 0.07 0.07 63 1017.8
20260507024516 28 0 10.0 18.0 0.00 0.07 0.07 63 1018.3
20260507023536 28 0 11.0 28.0 0.00 0.07 0.07 64 1018.1
20260507022516 28 0 13.0 28.0 0.00 0.07 0.07 63 1017.4
20260507021536 28 0 12.0 29.0 0.00 0.07 0.07 64 1017.3
20260507020515 28 0 8.0 19.0 0.00 0.07 0.07 63 1017.0
20260507015556 28 0 9.0 20.0 0.00 0.07 0.07 63 1017.0
20260507014516 29 0 6.0 17.0 0.00 0.07 0.07 65 1017.1
20260507013536 29 0 5.0 12.0 0.01 0.07 0.07 63 1017.2
20260507012515 31 0 9.0 24.0 0.01 0.07 0.07 60 1018.0
20260507011516 31 0 10.0 30.0 0.01 0.07 0.07 60 1017.8
20260507010555 32 0 9.0 27.0 0.01 0.07 0.07 59 1018.6
20260507005516 33 0 5.0 15.0 0.01 0.07 0.07 59 1018.9
20260507004516 33 0 5.0 15.0 0.02 0.07 0.07 55 1018.8
20260507003516 33 0 7.0 14.0 0.01 0.06 0.06 58 1018.7
20260507002535 33 0 5.0 16.0 0.02 0.06 0.06 56 1018.5
20260507001516 34 45 4.0 10.0 0.02 0.06 0.06 61 1019.1
20260507000515 34 0 4.0 12.0 0.02 0.06 0.06 59 1019.1
20260506235515 34 45 6.0 14.0 0.02 0.06 0.06 59 1019.1
20260506234515 33 0 4.0 15.0 0.02 0.05 0.05 61 1018.4
20260506233515 34 0 4.0 13.0 0.02 0.05 0.05 62 1019.1
20260506232515 33 0 5.0 13.0 0.01 0.04 0.04 64 1018.3
20260506231515 33 0 4.0 11.0 0.02 0.04 0.04 60 1018.1
20260506230517 33 0 3.0 9.0 0.03 0.04 0.04 66 1018.2
20260506225517 33 0 5.0 23.0 0.03 0.04 0.04 65 1018.3
20260506224517 33 45 5.0 12.0 0.02 0.03 0.03 63 1018.1
20260506223517 32 0 5.0 12.0 0.02 0.03 0.03 65 1018.5
20260506222517 32 0 5.0 13.0 0.02 0.03 0.03 65 1018.3
20260506221517 31 23 2.0 4.0 0.01 0.02 0.02 73 1017.8
20260506220537 30 0 4.0 10.0 0.00 0.01 0.01 82 1018.1
20260506215537 29 0 3.0 9.0 0.00 0.01 0.01 81 1017.4
20260506214517 30 293 2.0 5.0 0.00 0.01 0.01 81 1018.1
20260506213517 29 315 1.0 4.0 0.00 0.02 0.01 80 1017.5
20260506212517 29 315 1.0 3.0 0.00 0.02 0.01 82 1017.5
20260506211517 28 315 2.0 4.0 0.00 0.02 0.01 82 1017.3
20260506210517 28 293 4.0 9.0 0.00 0.03 0.01 85 1017.4
20260506205517 28 338 1.0 4.0 0.00 0.03 0.01 82 1017.5
20260506204517 26 0 2.0 6.0 0.00 0.03 0.01 82 1016.8
20260506203517 28 315 2.0 7.0 0.00 0.03 0.01 83 1017.5
20260506202517 27 338 3.0 9.0 0.00 0.04 0.01 86 1017.4
20260506201517 26 0 1.0 3.0 0.00 0.04 0.01 86 1017.4
20260506200517 25 0 1.0 4.0 0.00 0.04 0.01 86 1016.6
20260506195516 26 338 2.0 5.0 0.00 0.05 0.01 85 1016.5
20260506194517 27 0.0 3.0 0.00 0.05 0.01 83 1017.1
20260506193537 26 270 1.0 3.0 0.00 0.05 0.01 85 1017.2
20260506192537 26 0.0 3.0 0.01 0.05 0.01 85 1017.2
20260506191517 27 0.0 2.0 0.01 0.05 0.01 79 1017.1
20260506190516 27 0.0 2.0 0.01 0.06 0.01 79 1017.1
20260506185517 26 0.0 1.0 0.01 0.06 0.01 84 1017.1
20260506184516 25 0.0 2.0 0.01 0.06 0.01 81 1016.3
20260506183516 27 0.0 0.0 0.01 0.06 0.01 78 1017.1
20260506182516 28 0.0 3.0 0.00 0.06 0.00 80 1017.1
20260506181516 28 0.0 2.0 0.00 0.06 0.00 75 1017.1
20260506180537 28 0.0 2.0 0.00 0.07 0.00 75 1018.0
20260506175516 28 0.0 1.0 0.00 0.07 0.00 76 1018.0
20260506174516 27 0.0 2.0 0.00 0.07 0.00 80 1017.3
20260506173516 25 0.0 3.0 0.00 0.07 0.00 79 1016.5
20260506172516 24 0.0 3.0 0.00 0.07 0.00 83 1016.5
20260506171516 23 135 1.0 4.0 0.00 0.08 0.00 81 1015.6
20260506170616 24 135 1.0 4.0 0.00 0.09 0.00 84 1016.1
20260506165536 23 135 1.0 6.0 0.00 0.09 0.00 86 1015.3
20260506164516 22 135 1.0 3.0 0.00 0.09 0.00 85 1015.2
20260506163516 21 135 2.0 7.0 0.00 0.09 0.00 84 1014.2
20260506162516 22 113 2.0 8.0 0.00 0.09 0.00 85 1014.8
20260506161516 22 0.0 3.0 0.00 0.09 0.00 87 1014.6
20260506160536 21 0.0 3.0 0.00 0.09 0.00 86 1014.5
20260506155516 22 0.0 2.0 0.00 0.09 0.00 87 1015.1
20260506154516 21 135 1.0 3.0 0.00 0.09 0.00 87 1014.5
20260506153516 20 135 1.0 4.0 0.00 0.09 0.00 87 1014.1
20260506152556 20 0.0 2.0 0.00 0.09 0.00 88 1014.4
20260506151516 20 0.0 2.0 0.00 0.09 0.00 88 1014.3
20260506150516 20 0.0 2.0 0.00 0.09 0.00 88 1014.3
20260506145516 20 0.0 2.0 0.00 0.09 0.00 90 1014.3
20260506144516 20 0.0 3.0 0.00 0.09 0.00 90 1014.1
20260506143536 20 0.0 2.0 0.00 0.09 0.00 90 1014.1
20260506142516 20 0.0 1.0 0.00 0.09 0.00 91 1014.0
20260506141536 19 0.0 2.0 0.00 0.09 0.00 91 1014.0
20260506140515 19 180 1.0 3.0 0.00 0.09 0.00 91 1013.7
20260506135536 19 180 1.0 3.0 0.00 0.09 0.00 92 1013.6
20260506134536 18 203 1.0 3.0 0.00 0.09 0.00 92 1013.4
20260506133515 18 203 1.0 3.0 0.00 0.09 0.00 92 1013.4
20260506132515 18 203 1.0 3.0 0.00 0.09 0.00 92 1013.3
20260506131535 18 203 1.0 4.0 0.00 0.09 0.00 92 1012.9
20260506130515 18 225 1.0 6.0 0.00 0.09 0.00 92 1012.7
20260506125515 18 180 1.0 4.0 0.00 0.09 0.00 92 1013.2
20260506124515 18 180 1.0 3.0 0.00 0.09 0.00 92 1013.1
20260506123516 18 0.0 3.0 0.00 0.09 0.00 92 1012.9
20260506122515 18 0.0 2.0 0.00 0.09 0.00 92 1012.6
20260506121516 18 180 1.0 2.0 0.00 0.09 0.00 92 1012.4
20260506120516 18 0.0 2.0 0.00 0.09 0.00 92 1012.5
20260506115536 18 0.0 2.0 0.00 0.09 0.00 92 1012.4
20260506114515 18 0.0 2.0 0.00 0.09 0.00 93 1012.0
20260506113515 18 0.0 2.0 0.00 0.09 0.00 93 1011.9
20260506112515 18 0.0 1.0 0.00 0.09 0.00 92 1011.8
20260506111515 18 0.0 2.0 0.00 0.09 0.00 93 1011.6
20260506110515 18 0.0 2.0 0.00 0.09 0.00 93 1011.5
20260506105517 18 0.0 0.0 0.00 0.09 0.00 93 1011.3
20260506104517 18 0.0 0.0 0.00 0.09 0.00 93 1011.4
20260506103517 18 0.0 0.0 0.00 0.09 0.00 92 1011.4
20260506102517 18 0.0 2.0 0.00 0.10 0.00 92 1011.1
20260506101517 18 0.0 2.0 0.00 0.10 0.00 92 1011.3
20260506100517 18 158 1.0 4.0 0.00 0.10 0.00 92 1011.4
20260506095517 18 158 1.0 5.0 0.00 0.10 0.00 92 1011.9
20260506094517 18 158 1.0 5.0 0.00 0.10 0.00 92 1012.1
20260506093517 18 158 1.0 4.0 0.00 0.10 0.00 92 1012.0
20260506092517 18 158 1.0 5.0 0.00 0.10 0.00 92 1011.7
20260506091517 18 135 3.0 7.0 0.00 0.10 0.00 92 1011.7
20260506090537 18 135 2.0 5.0 0.00 0.10 0.00 92 1011.7
20260506085517 19 135 3.0 8.0 0.00 0.10 0.00 92 1012.2
20260506084517 19 135 1.0 4.0 0.00 0.10 0.00 92 1012.1
20260506083517 19 135 1.0 4.0 0.00 0.10 0.00 92 1012.2
20260506082517 20 135 1.0 3.0 0.00 0.10 0.00 93 1012.2
20260506081537 20 180 1.0 4.0 0.00 0.10 0.00 93 1011.8
20260506080516 20 158 1.0 3.0 0.00 0.10 0.00 93 1012.4
20260506073516 20 135 1.0 3.0 0.00 0.10 0.00 93 1011.7
20260506072517 20 135 1.0 4.0 0.00 0.10 0.00 93 1012.1
20260506071517 20 135 1.0 4.0 0.00 0.10 0.00 93 1012.0
20260506070516 20 135 1.0 3.0 0.00 0.10 0.00 93 1012.1
20260506062516 20 135 1.0 2.0 0.00 0.10 0.00 92 1011.8
20260506061516 20 135 2.0 4.0 0.00 0.10 0.00 92 1011.6
20260506060516 20 158 1.0 4.0 0.00 0.10 0.00 92 1011.6